Home   Weather   Yakutsk   Past weeks
Flag for Russia

Past Weather in Yakutsk, Russia — Yesterday and Last 2 Weeks

Now
52 °F

Sunny.


Feels Like: 50 °F
Forecast: 70 / 50 °F
Wind: 6 mph from Northwest

Location: Jakutsk

Current Time: Aug 26, 2019 at 6:15:19 am

Latest Report: Aug 26, 2019 at 5:30 am


Visibility: 10 mi

Pressure: 29.74 "Hg

Humidity: 88%

Dew Point: 48 °F

Location of YakutskLocation

Past Weather in Yakutsk — Graph

°F

Yakutsk Temperature Yesterday

Maximum temperature yesterday: 72 °F (at 2:00 pm)
Minimum temperature yesterday: 46 °F (at 5:30 am)
Average temperature yesterday: 58 °F

High & Low Weather Summary for the Past Weeks

 TemperatureHumidityPressure
High79 °F (Aug 14, 2:00 pm)100% (Aug 11, 5:30 am)30.07 "Hg (Aug 11, 5:30 am)
Low46 °F (Aug 14, 4:30 am)30% (Aug 14, 3:30 pm)29.68 "Hg (Aug 12, 12:30 pm)
Average61 °F77%29.87 "Hg
* Reported Aug 11 5:00 am — Aug 26 5:00 am, Yakutsk. Weather by CustomWeather, © 2019

Note: Actual official high and low records may vary slightly from our data, if they occured in-between our weather recording intervals... More about our weather records

Advertising

Yakutsk Weather History for the Previous 24 Hours

Scroll right to see more
 ConditionsComfort  
Time TempWeatherWind HumidityBarometerVisibility
5:00 am
Mon, Aug 26
52 °FSunny.3 mph94%29.74 "Hg10 mi
4:30 am54 °FSunny.6 mph88%29.74 "Hg10 mi
4:00 am54 °FSunny.8 mph88%29.74 "Hg10 mi
3:30 am54 °FClear.8 mph88%29.71 "Hg10 mi
3:00 am54 °FClear.8 mph88%29.71 "Hg10 mi
2:30 am54 °FClear.8 mph88%29.71 "Hg10 mi
2:00 am54 °FClear.8 mph88%29.71 "Hg10 mi
1:30 am54 °FClear.8 mph88%29.71 "Hg10 mi
1:00 am55 °FClear.8 mph82%29.71 "Hg10 mi
12:30 am55 °FClear.6 mph82%29.71 "Hg10 mi
12:00 am57 °FClear.6 mph77%29.71 "Hg10 mi
11:30 pm
Sun, Aug 25
57 °FClear.6 mph77%29.71 "Hg10 mi
11:00 pm57 °FClear.6 mph77%29.71 "Hg10 mi
10:30 pm59 °FClear.8 mph77%29.71 "Hg10 mi
10:00 pm55 °FClear.3 mph82%29.71 "Hg10 mi
9:30 pm57 °FPassing clouds.6 mph82%29.71 "HgN/A
9:00 pm59 °FPassing clouds.6 mph77%29.71 "HgN/A
8:30 pm61 °FPassing clouds.6 mph72%29.71 "HgN/A
8:00 pm61 °FPassing clouds.6 mph77%29.71 "HgN/A
7:30 pm61 °FPassing clouds.3 mph72%29.71 "HgN/A
7:00 pm63 °FPassing clouds.6 mph73%29.71 "HgN/A
6:30 pm64 °FScattered clouds.6 mph64%29.71 "HgN/A
6:00 pm63 °FScattered clouds.6 mph68%29.71 "HgN/A
5:30 pm64 °FScattered clouds.8 mph60%29.71 "HgN/A
5:00 pm64 °FScattered clouds.6 mph56%29.71 "HgN/A
4:30 pm64 °FThunderstorms. Scattered clouds.6 mph56%29.71 "HgN/A
4:00 pm66 °FThunderstorms. Scattered clouds.6 mph60%29.71 "HgN/A
3:30 pm68 °FScattered clouds.3 mph53%29.71 "HgN/A
3:00 pm70 °FPassing clouds.3 mph50%29.71 "HgN/A
2:30 pm70 °FPassing clouds.6 mph50%29.71 "HgN/A
2:00 pm72 °FPassing clouds.3 mph47%29.71 "HgN/A
1:30 pm70 °FSunny.3 mph53%29.74 "Hg10 mi
1:00 pm70 °FPassing clouds.6 mph64%29.74 "HgN/A
12:30 pm68 °FSunny.3 mph64%29.74 "Hg10 mi
12:00 pm66 °FSunny.3 mph68%29.74 "Hg10 mi
11:30 am66 °FSunny.3 mph73%29.74 "Hg10 mi
11:00 am63 °FSunny.3 mph77%29.77 "Hg10 mi
10:30 am61 °FPassing clouds.3 mph83%29.77 "HgN/A
9:30 am61 °FPassing clouds.3 mph77%29.77 "HgN/A
9:00 am61 °FPassing clouds.1 mph77%29.77 "HgN/A
8:30 am57 °FPassing clouds.No wind88%29.77 "HgN/A
8:00 am55 °FPassing clouds.1 mph94%29.77 "HgN/A
7:30 am52 °FFog.1 mph100%29.77 "Hg1 mi
7:00 am50 °FCool.1 mph94%29.80 "Hg1 mi
6:30 am48 °FFog.1 mph94%29.80 "Hg0 mi
6:00 am48 °FCool.3 mph94%29.80 "Hg0 mi
Weather by CustomWeather, © 2019

See weather overview